Location: Thompson
(55.7500°N, 97.8670°W)
Time: 18:02:08
(UTC-05:00)

Cosmos 1666 - Visible Passes

Search period start: 30 July 2015 00:00
Search period end: 09 August 2015 00:00
Orbit: 508 x 532 km, 82.5° (Epoch: 30 July)

Date Brightness Start Highest point End Pass type
(mag) Time Alt. Az. Time Alt. Az. Time Alt. Az.
30 Jul 3.5 02:17:08 23° SSE 02:19:09 43° E 02:22:54 10° NNE visible
30 Jul 4.3 03:52:15 12° WSW 03:55:11 25° WNW 03:58:28 10° N visible
31 Jul 3.7 02:03:44 23° SE 02:05:35 38° E 02:09:15 10° NNE visible
31 Jul 4.2 03:38:50 14° WSW 03:41:31 28° WNW 03:44:56 10° N visible
01 Aug 3.9 01:50:19 23° SE 01:52:00 33° E 01:55:35 10° NNE visible
01 Aug 4.0 03:25:25 16° WSW 03:27:53 31° WNW 03:31:24 10° N visible
02 Aug 4.1 01:36:53 22° SE 01:38:26 30° E 01:41:55 10° NNE visible
02 Aug 3.8 03:11:59 19° WSW 03:14:14 34° WNW 03:17:52 10° N visible
03 Aug 4.2 01:23:26 21° SE 01:24:52 27° E 01:28:13 10° NNE visible
03 Aug 3.7 02:58:32 22° SW 03:00:35 38° WNW 03:04:18 10° N visible
04 Aug 4.4 01:09:58 20° ESE 01:11:18 24° E 01:14:31 10° NE visible
04 Aug 3.5 02:45:05 25° SW 02:46:56 43° WNW 02:50:44 10° N visible
05 Aug 4.5 00:56:30 18° ESE 00:57:43 21° E 01:00:47 10° NE visible
05 Aug 3.3 02:31:37 29° SW 02:33:18 49° WNW 02:37:08 10° N visible
06 Aug 4.6 00:43:02 17° ESE 00:44:09 19° E 00:47:01 10° NE visible
06 Aug 3.1 02:18:08 32° SW 02:19:39 55° WNW 02:23:33 10° N visible
07 Aug 4.7 00:29:32 15° ESE 00:30:35 17° E 00:33:14 10° NE visible
07 Aug 3.0 02:04:38 37° SW 02:06:01 63° WNW 02:09:57 10° N visible
07 Aug 5.3 03:41:43 10° WNW 03:42:47 11° NW 03:43:41 10° NW visible
08 Aug 4.8 00:16:01 14° ESE 00:17:01 15° E 00:19:25 10° NE visible
08 Aug 2.8 01:51:07 41° SSW 01:52:22 72° WNW 01:56:20 10° N visible
08 Aug 5.3 03:27:27 10° WNW 03:29:03 12° NW 03:30:31 10° NNW visible
